User: anonymous   Login
Location: downtown San Diego
(32.7310°N, 117.1990°W)
Time: 10:48:45
(UTC-07:00)
Language:

OAO 1 Rocket - Orbit

View from above orbital plane
View from above orbital plane
View from above satellite
View from above satellite

Ground track
Ground track

The orbit data is extracted from the following two-line orbital elements,

1  2144U 66031B   19167.23003338  .00000008  00000-0  80926-5 0  9991
2  2144  35.0420 123.6631 0008642 187.6420 172.4140 14.42718205793447
Epoch (UTC): 16 June 2019 05:31:14
Eccentricity: 0.0008642
inclination: 35.0420°
perigee height: 743 km
apogee height: 755 km
right ascension of ascending node: 123.6631°
argument of perigee: 187.6420°
revolutions per day: 14.42718205
mean anomaly at epoch: 172.4140°
orbit number at epoch: 79344

The dashed part of the orbit path shows where the satellite is in the earth's shadow,  

DLR